Regional Weather Roundup
Issued by NWS

Home | Current Version | Previous Version | Graphics & Text | Print | Product List | Glossary Off
Versions: 1 2 3 4 5 6 7 8 9 10 11 12 13 14 15 16 17 18 19 20 21 22 23 24 25 26 27 28 29 30 31 32 33 34 35 36 37 38 39 40 41 42 43 44 45 46 47 48 49 50

000
ASUS43 KMKX 280011
RWRWI

WISCONSIN REGIONAL WEATHER ROUNDUP
NATIONAL WEATHER SERVICE MILWAUKEE/SULLIVAN WI
700 PM CDT SAT MAY 27 2017

NOTE: "FAIR" INDICATES FEW OR NO CLOUDS BELOW 12,000 FEET WITH NO
SIGNIFICANT WEATHER AND/OR OBSTRUCTIONS TO VISIBILITY.

WIZ001-002-006>008-014>016-023>028-280100-
NORTHWEST WISCONSIN

CITY           SKY/WX    TMP DP  RH WIND       PRES   REMARKS
SUPERIOR ARPT  NOT AVBL
ASHLAND        CLOUDY    72  42  34 SW6       29.79S
6HR MIN TEMP:  71; 6HR MAX TEMP:  74;

HAYWARD        CLOUDY    70  43  37 SW8       29.82S
6HR MIN TEMP:  68; 6HR MAX TEMP:  71;

SIREN          CLOUDY    71  43  37 CALM      29.83S
6HR MIN TEMP:  69; 6HR MAX TEMP:  73;

CUMBERLAND     CLOUDY    64  46  52 SW6       29.85S
RICE LAKE      CLOUDY    68  42  38 CALM      29.86S
6HR MIN TEMP:  68; 6HR MAX TEMP:  70;

CHETEK         CLOUDY    66  52  61 SW7       29.86R
6HR MIN TEMP:  66; 6HR MAX TEMP:  71;

LADYSMITH      CLOUDY    67  49  51 SW5       29.87R
6HR MIN TEMP:  67; 6HR MAX TEMP:  72;

EAU CLAIRE     CLOUDY    68  47  46 SW8       29.86R
6HR MIN TEMP:  67; 6HR MAX TEMP:  70; 6HR PCP: TRACE;

MENOMONIE      CLOUDY    66  49  53 S6        29.87S
6HR MIN TEMP:  65; 6HR MAX TEMP:  71;

NEW RICHMOND   CLOUDY    67  49  53 SW6       29.87R
6HR MIN TEMP:  65; 6HR MAX TEMP:  71;

OSCEOLA        CLOUDY    72  42  34 SW6       29.87S
6HR MIN TEMP:  69; 6HR MAX TEMP:  73;

$$

WIZ003>005-009-010-017-018-280100-
NORTH CENTRAL WISCONSIN

CITY           SKY/WX    TMP DP  RH WIND       PRES   REMARKS
MANITOWISH WTR CLOUDY    66  47  50 W5        29.83R
6HR MIN TEMP:  66; 6HR MAX TEMP:  73;

ARBOR VITAE    CLOUDY    67  46  46 W5        29.84R
6HR MIN TEMP:  67; 6HR MAX TEMP:  73;

WOODRUFF       CLOUDY    67  46  46 W5        29.84R
6HR MIN TEMP:  67; 6HR MAX TEMP:  73;

RHINELANDER    CLOUDY    68  50  52 W6        29.86R
6HR MIN TEMP:  67; 6HR MAX TEMP:  77;

EAGLE RIVER    CLOUDY    66  43  42 W7        29.84R
6HR MIN TEMP:  66; 6HR MAX TEMP:  74;

LAND O LAKES   CLOUDY    68  45  44 N5        29.84R
6HR MIN TEMP:  68; 6HR MAX TEMP:  77;

PHILLIPS       CLOUDY    66  47  49 SW5       29.85R
6HR MIN TEMP:  66; 6HR MAX TEMP:  70;

TOMAHAWK       CLOUDY    66  46  49 W6        29.87R
6HR MIN TEMP:  66; 6HR MAX TEMP:  73;

MEDFORD        CLOUDY    65  50  59 SW6       29.87R
6HR MIN TEMP:  65; 6HR MAX TEMP:  70;

MERRILL        CLOUDY    67  50  54 SW5       29.86R
6HR MIN TEMP:  67; 6HR MAX TEMP:  74;

$$

WIZ029-030-035-036-043>047-280100-
CENTRAL WISCONSIN

CITY           SKY/WX    TMP DP  RH WIND       PRES   REMARKS
WAUSAU         MOSUNNY   67  48  50 W6        29.84R
6HR MIN TEMP:  67; 6HR MAX TEMP:  75;

MOSINEE        CLOUDY    66  52  59 W5        29.87R
MARSHFIELD     CLOUDY    65  51  60 W5        29.86S
6HR MIN TEMP:  65; 6HR MAX TEMP:  73;

STEVENS POINT  CLOUDY    67  50  53 W3        29.86R
6HR MIN TEMP:  67; 6HR MAX TEMP:  74;

WAUPACA        CLOUDY    74  51  43 NW5       29.84S
6HR MIN TEMP:  74; 6HR MAX TEMP:  80;

WAUTOMA        PTSUNNY   72  53  51 W7        29.85R
6HR MIN TEMP:  72; 6HR MAX TEMP:  77;

WISC RAPIDS    CLOUDY    70  52  52 N7        29.86F
6HR MIN TEMP:  70; 6HR MAX TEMP:  77;

CAMP DOUGLAS   CLOUDY    68  59  73 W9        29.86R
6HR MIN TEMP:  68; 6HR MAX TEMP:  75;

$$

WIZ011>013-019>022-031-037>040-048>050-280100-
NORTHEAST WISCONSIN

CITY           SKY/WX    TMP DP  RH WIND       PRES   REMARKS
ANTIGO         CLOUDY    65  51  60 W7        29.86R
6HR MIN TEMP:  65; 6HR MAX TEMP:  73;

SHAWANO        CLOUDY    75  49  41 W3        29.83R
6HR MIN TEMP:  74; 6HR MAX TEMP:  79;

OCONTO         CLOUDY    72  57  58 S7        29.82R
6HR MIN TEMP:  72; 6HR MAX TEMP:  77;

STURGEON BAY   MOSUNNY   64  52  64 S9        29.84R
6HR MIN TEMP:  64; 6HR MAX TEMP:  72; 6HR PCP:  0.01;

GREEN BAY      MOSUNNY   73  61  65 S5        29.81R
6HR MIN TEMP:  72; 6HR MAX TEMP:  75;

MANITOWOC      SUNNY     65  51  60 S8        29.84S
6HR MIN TEMP:  62; 6HR MAX TEMP:  69;

APPLETON       PTSUNNY   73  54  49 SW5       29.81S
CLINTONVILLE   MOSUNNY   72  46  40 NW7       29.82F
OSHKOSH        SUNNY     74  57  55 SW3       29.83F
6HR MIN TEMP:  73; 6HR MAX TEMP:  76;

$$

WIZ032>034-041-042-053>061-280100-
SOUTHWEST WISCONSIN

CITY           SKY/WX    TMP DP  RH WIND       PRES   REMARKS
LA CROSSE      LGT RAIN  66  52  60 NW6       29.88R
6HR MIN TEMP:  66; 6HR MAX TEMP:  77; 6HR PCP: TRACE;

SPARTA         CLOUDY    67  51  55 W3        29.88S
6HR MIN TEMP:  67; 6HR MAX TEMP:  74;

VIROQUA        CLOUDY    67  53  59 SW3       29.90R
6HR MIN TEMP:  67; 6HR MAX TEMP:  74;

BOSCOBEL       CLOUDY    69  58  67 CALM      29.88R
6HR MIN TEMP:  69; 6HR MAX TEMP:  77;

PRAIRIE DU CHI LGT RAIN  66  59  76 SE3       29.87S
6HR MIN TEMP:  66; 6HR MAX TEMP:  74;

PLATTEVILLE    CLOUDY    70  65  83 CALM      29.88S
6HR MIN TEMP:  69; 6HR MAX TEMP:  73;

$$

WIZ056-057-062-063-064-067-068-280100-
SOUTH CENTRAL WISCONSIN

CITY           SKY/WX    TMP DP  RH WIND       PRES   REMARKS
REEDSBURG      PTSUNNY   70  54  57 W5        29.86R
6HR MIN TEMP:  67; 6HR MAX TEMP:  74;

BARABOO/DELLS  PTSUNNY   69  53  55 W3        29.87R
6HR MIN TEMP:  68; 6HR MAX TEMP:  74;

LONE ROCK      CLOUDY    71  59  65 W5        29.87R
6HR MIN TEMP:  69; 6HR MAX TEMP:  76;

MINERAL POINT  DRIZZLE   70  59  68 CALM      29.88S
MADISON        CLOUDY    72  56  57 CALM      29.85R
6HR MIN TEMP:  70; 6HR MAX TEMP:  76;

MIDDLETON      CLOUDY    71  56  60 NW5       29.87R
6HR MIN TEMP:  71; 6HR MAX TEMP:  76;

WATERTOWN      SUNNY     72  59  62 CALM      29.85R
6HR MIN TEMP:  70; 6HR MAX TEMP:  76;

MONROE         CLOUDY    72  59  64 W7        29.86S
JANESVILLE     PTSUNNY   73  61  64 CALM      29.85S
$$

WIZ051-052-058>065-066-070>072-280100-
SOUTHEAST WISCONSIN

CITY           SKY/WX    TMP DP  RH WIND       PRES   REMARKS
MILWAUKEE      PTSUNNY   66  53  63 SE9       29.86F
6HR MIN TEMP:  66; 6HR MAX TEMP:  72;

WAUKESHA       MOSUNNY   70  55  60 SE9       29.86F
MILWAUKEE/TIMM SUNNY     70  50  49 SE7       29.86F
RACINE         SUNNY     65  50  58 S8        29.87F
6HR MIN TEMP:  65; 6HR MAX TEMP:  70;

KENOSHA        SUNNY     67  53  61 SE9       29.86S
6HR MIN TEMP:  67; 6HR MAX TEMP:  73;

FOND DU LAC    SUNNY     75  50  41 SW5       29.84F
6HR MIN TEMP:  72; 6HR MAX TEMP:  76;

SHEBOYGAN      SUNNY     67  55  65 S9        29.84F
6HR MIN TEMP:  66; 6HR MAX TEMP:  73;

WEST BEND      SUNNY     68  54  60 SE6       29.85S
JUNEAU         PTSUNNY   73  59  60 W7        29.86R
6HR MIN TEMP:  69; 6HR MAX TEMP:  74;

$$

LSZ147-162-280100-
LAKE SUPERIOR

STATION/POSITION TIME  TEMP    WIND        PRES    WAVE
                       AIR SEA DIR/SP/G            HT/PER
                 (UTC) (F)     (DEG/KT/KT) (MB)    (FT/S)
W MID LAKE BUOY  2350   49 38  210/  8/  8 1008.7F   0
DEVILS ISLAND    2300   69     220/  9/ 11 1008.0F
SAXON HARBOR     2340   68      70/  2/  4 1008.8F
$$

LMZ867-665-643>646-280100-
LAKE MICHIGAN

STATION/POSITION TIME  TEMP    WIND        PRES    WAVE
                       AIR SEA DIR/SP/G            HT/PER
                 (UTC) (F)     (DEG/KT/KT) (MB)    (FT/S)
CHAMBERS ISLAND  2340   68     140/  4/ 12 1008.8S
N MID LAKE BUOY  2350   46 42  160/  6/  6 1010.8F   0
NOR



USA.gov is the U.S. government's official web portal to all federal, state and local government web resources and services.